Terminal Aerodrome Forecast
Issued by NWS

Home | Current Version | Previous Version | Text Only | Print | Product List | Glossary On
Versions: 1 2 3 4 5 6 7 8 9 10 11 12 13 14 15 16
000
FTUS46 KMTR 021700
TAFSNS
TAF
KSNS 021732Z 0218/0318 25005KT P6SM OVC010
     FM021815 29006KT P6SM SKC
     FM022100 28012KT P6SM SKC
     FM030300 28009KT P6SM BKN010
     FM030600 28006KT P6SM OVC008=

USA.gov is the U.S. government's official web portal to all federal, state and local government web resources and services.